QPF
0.00 0.00 0.00 0.00 0.00 0.00 0.00 0.00 0.00 0.00 0.00 0.00 0.00 0.00 0.00 0.00 0.00 0.00 0.00 0.00 0.00 0.00 0.00 0.00 0.00 0.00 0.00 0.00 0.00 0.00 0.00 0.00 0.00 0.00 0.00 0.00 0.00 0.00 0.00 0.00 0.00 0.00 0.01 0.01
0.00 0.00 0.00 0.00 0.00 0.00 0.00 0.00 0.00 0.00 0.00 0.00 0.00 0.00 0.00 0.00 0.00 0.00 0.00 0.00 0.00 0.00 0.00 0.00 0.00 0.00 0.00 0.00 0.00 0.00 0.00 0.00 0.00 0.00 0.00 0.00 0.00 0.00 0.00 0.00 0.00 0.00 0.01 0.06
0.00 0.00 0.00 0.00 0.00 0.00 0.00 0.00 0.00 0.00 0.00 0.00 0.00 0.00 0.00 0.00 0.00 0.00 0.00 0.00 0.00 0.00 0.00 0.00 0.00 0.00 0.00 0.00 0.00 0.00 0.00 0.00 0.00 0.00 0.00 0.00 0.00 0.00 0.00 0.00 0.00 0.00 0.00 0.01
0.00 0.00 0.00 0.00 0.00 0.00 0.00 0.00 0.00 0.00 0.00 0.00 0.00 0.00 0.00 0.00 0.00 0.00 0.00 0.00 0.00 0.00 0.00 0.00 0.00 0.00 0.00 0.00 0.00 0.00 0.00 0.00 0.00 0.00 0.00 0.00 0.00 0.00 0.00 0.00 0.00 0.00 0.00 0.00
0.00 0.00 0.00 0.00 0.00 0.00 0.00 0.00 0.00 0.00 0.00 0.00 0.00 0.00 0.00 0.00 0.00 0.00 0.00 0.00 0.00 0.00 0.00 0.00 0.00 0.00 0.00 0.00 0.00 0.00 0.00 0.00 0.00 0.00 0.00 0.00 0.00 0.00 0.00 0.00 0.00 0.00 0.00 0.00
0.00 0.00 0.00 0.00 0.00 0.00 0.00 0.00 0.00 0.00 0.00 0.00 0.00 0.00 0.00 0.00 0.00 0.00 0.00 0.00 0.00 0.00 0.00 0.00 0.00 0.00 0.00 0.00 0.00 0.00 0.00 0.00 0.00 0.00 0.00 0.00 0.00 0.00 0.00 0.00 0.00 0.00 0.00 0.00
0.00 0.00 0.00 0.00 0.00 0.00 0.00 0.00 0.00 0.00 0.00 0.00 0.00 0.00 0.00 0.00 0.00 0.00 0.00 0.00 0.00 0.00 0.00 0.00 0.00 0.00 0.00 0.00 0.00 0.00 0.00 0.00 0.00 0.00 0.00 0.00 0.00 0.00 0.00 0.00 0.00 0.00 0.00 0.00
0.00 0.00 0.00 0.00 0.00 0.00 0.00 0.00 0.00 0.00 0.00 0.00 0.00 0.00 0.00 0.00 0.00 0.00 0.00 0.00 0.00 0.00 0.00 0.00 0.00 0.00 0.00 0.00 0.00 0.00 0.00 0.00 0.00 0.00 0.00 0.00 0.00 0.00 0.00 0.00 0.00 0.00 0.00 0.00
0.00 0.00 0.00 0.00 0.00 0.00 0.00 0.00 0.00 0.00 0.00 0.00 0.00 0.00 0.00 0.00 0.00 0.00 0.00 0.00 0.00 0.00 0.00 0.00 0.00 0.00 0.00 0.00 0.00 0.00 0.00 0.00 0.00 0.00 0.00 0.00 0.00 0.00 0.00 0.00 0.00 0.00 0.00 0.01
0.00 0.00 0.00 0.00 0.00 0.00 0.00 0.00 0.00 0.00 0.00 0.00 0.00 0.00 0.00 0.00 0.00 0.00 0.00 0.00 0.00 0.00 0.00 0.00 0.00 0.00 0.00 0.00 0.00 0.00 0.00 0.00 0.00 0.00 0.00 0.00 0.00 0.00 0.00 0.00 0.00 0.00 0.00 0.01
0.00 0.00 0.00 0.00 0.00 0.00 0.00 0.00 0.00 0.00 0.00 0.00 0.00 0.00 0.00 0.00 0.00 0.00 0.00 0.00 0.00 0.00 0.00 0.00 0.00 0.00 0.00 0.00 0.00 0.00 0.00 0.00 0.00 0.00 0.00 0.00 0.00 0.00 0.00 0.00 0.00 0.00 0.01 0.02
0.00 0.00 0.00 0.00 0.00 0.00 0.00 0.00 0.00 0.00 0.00 0.00 0.00 0.00 0.00 0.00 0.00 0.00 0.00 0.00 0.00 0.00 0.00 0.00 0.00 0.00 0.00 0.00 0.00 0.00 0.00 0.00 0.00 0.00 0.00 0.00 0.00 0.00 0.00 0.00 0.01 0.02 0.04 0.06
0.00 0.00 0.00 0.00 0.00 0.00 0.00 0.00 0.00 0.00 0.00 0.00 0.00 0.00 0.00 0.00 0.00 0.00 0.00 0.00 0.00 0.00 0.00 0.00 0.00 0.00 0.00 0.00 0.00 0.00 0.00 0.00 0.00 0.00 0.00 0.00 0.00 0.00 0.00 0.01 0.02 0.06 0.10 0.11
0.00 0.00 0.00 0.00 0.00 0.00 0.00 0.00 0.00 0.00 0.00 0.00 0.00 0.00 0.00 0.00 0.00 0.00 0.00 0.00 0.00 0.00 0.00 0.00 0.00 0.00 0.00 0.00 0.00 0.00 0.00 0.00 0.00 0.00 0.00 0.00 0.00 0.00 0.00 0.01 0.04 0.08 0.09 0.10
0.00 0.00 0.00 0.00 0.00 0.00 0.00 0.00 0.00 0.00 0.00 0.00 0.00 0.00 0.00 0.00 0.00 0.00 0.00 0.00 0.00 0.00 0.00 0.00 0.00 0.00 0.00 0.00 0.00 0.00 0.00 0.00 0.00 0.00 0.00 0.00 0.00 0.00 0.01 0.03 0.04 0.07 0.11 0.12
0.00 0.00 0.00 0.00 0.00 0.00 0.00 0.00 0.00 0.00 0.00 0.00 0.00 0.00 0.00 0.00 0.00 0.00 0.00 0.00 0.00 0.00 0.00 0.00 0.00 0.00 0.00 0.00 0.00 0.00 0.00 0.00 0.00 0.00 0.00 0.00 0.00 0.00 0.00 0.03 0.04 0.06 0.09 0.12
0.00 0.00 0.00 0.00 0.00 0.00 0.00 0.00 0.00 0.00 0.00 0.00 0.00 0.00 0.00 0.00 0.00 0.00 0.00 0.00 0.00 0.00 0.00 0.00 0.00 0.00 0.00 0.00 0.00 0.00 0.00 0.00 0.00 0.00 0.00 0.00 0.00 0.00 0.00 0.00 0.00 0.02 0.05 0.07
0.00 0.00 0.00 0.00 0.00 0.00 0.00 0.00 0.00 0.00 0.00 0.00 0.00 0.00 0.00 0.00 0.00 0.00 0.00 0.00 0.00 0.00 0.00 0.00 0.00 0.00 0.00 0.00 0.00 0.00 0.00 0.00 0.00 0.00 0.00 0.00 0.00 0.00 0.00 0.00 0.00 0.00 0.00 0.00
0.00 0.00 0.00 0.00 0.00 0.00 0.00 0.00 0.00 0.00 0.00 0.00 0.00 0.00 0.00 0.00 0.00 0.00 0.00 0.00 0.00 0.00 0.00 0.00 0.00 0.00 0.00 0.00 0.00 0.00 0.00 0.00 0.00 0.00 0.00 0.00 0.00 0.00 0.00 0.00 0.00 0.00 0.00 0.00
0.00 0.00 0.00 0.00 0.00 0.00 0.00 0.00 0.00 0.00 0.00 0.00 0.00 0.00 0.00 0.00 0.00 0.00 0.00 0.00 0.00 0.00 0.00 0.00 0.00 0.00 0.00 0.00 0.00 0.00 0.00 0.00 0.00 0.00 0.00 0.00 0.00 0.00 0.00 0.00 0.00 0.00 0.00 0.00
0.00 0.00 0.00 0.00 0.00 0.00 0.00 0.00 0.00 0.00 0.00 0.00 0.00 0.00 0.00 0.00 0.00 0.00 0.00 0.00 0.00 0.00 0.00 0.00 0.00 0.00 0.00 0.00 0.00 0.00 0.00 0.00 0.00 0.00 0.00 0.00 0.00 0.00 0.00 0.00 0.00 0.00 0.00 0.00
0.00 0.00 0.00 0.00 0.00 0.00 0.00 0.00 0.00 0.00 0.00 0.00 0.00 0.00 0.00 0.00 0.00 0.00 0.00 0.00 0.00 0.00 0.00 0.00 0.00 0.00 0.00 0.00 0.00 0.00 0.00 0.00 0.00 0.00 0.00 0.00 0.00 0.00 0.00 0.00 0.00 0.00 0.00 0.00
0.00 0.00 0.00 0.00 0.00 0.00 0.00 0.00 0.00 0.00 0.00 0.00 0.00 0.00 0.00 0.00 0.00 0.00 0.00 0.00 0.00 0.00 0.00 0.00 0.00 0.00 0.00 0.00 0.00 0.00 0.00 0.00 0.00 0.00 0.00 0.00 0.00 0.00 0.00 0.00 0.00 0.00 0.00 0.00
0.00 0.00 0.00 0.00 0.00 0.00 0.00 0.00 0.00 0.00 0.00 0.00 0.00 0.00 0.00 0.00 0.00 0.00 0.00 0.00 0.00 0.00 0.00 0.00 0.00 0.00 0.00 0.00 0.00 0.00 0.00 0.00 0.00 0.00 0.00 0.00 0.00 0.00 0.00 0.00 0.00 0.00 0.01 0.01
0.00 0.00 0.00 0.00 0.00 0.00 0.00 0.00 0.00 0.00 0.00 0.00 0.00 0.00 0.00 0.00 0.00 0.00 0.00 0.00 0.00 0.00 0.00 0.00 0.00 0.00 0.00 0.00 0.00 0.00 0.00 0.00 0.00 0.00 0.00 0.00 0.00 0.00 0.00 0.00 0.00 0.00 0.00 0.01
0.00 0.00 0.00 0.00 0.00 0.00 0.00 0.00 0.00 0.00 0.00 0.00 0.00 0.00 0.00 0.00 0.00 0.00 0.00 0.00 0.00 0.00 0.00 0.00 0.00 0.00 0.00 0.00 0.00 0.00 0.00 0.00 0.00 0.00 0.00 0.00 0.00 0.00 0.00 0.00 0.00 0.00 0.00 0.00
MSLP
1014.62 1015.40 1015.42 1014.94 1015.07 1014.79 1014.79 1014.44 1014.51 1014.10 1013.78 1013.98 1014.54 1015.04 1015.54 1016.85 1017.75 1019.24 1020.30 1020.79 1021.04 1021.09 1021.24 1021.21 1021.39 1021.35 1021.27 1021.60 1021.72 1021.82 1021.53 1021.33 1020.79 1020.30 1019.83 1019.08 1018.81 1017.87 1016.82 1016.16 1015.43 1014.90 1014.26 1013.45
1015.13 1015.12 1014.70 1014.80 1014.72 1014.46 1014.69 1014.73 1014.66 1014.49 1014.61 1014.82 1015.46 1016.31 1016.51 1017.78 1019.24 1020.20 1020.76 1021.27 1021.32 1021.43 1021.60 1021.83 1022.01 1022.05 1022.24 1022.65 1022.51 1022.27 1022.03 1021.77 1021.54 1021.30 1021.13 1020.76 1019.97 1018.70 1017.99 1016.78 1016.23 1015.49 1014.60 1014.00
1015.15 1014.08 1013.89 1014.22 1014.71 1014.72 1014.74 1014.70 1015.13 1015.39 1015.27 1015.83 1016.43 1017.39 1017.66 1019.54 1020.23 1021.10 1021.70 1021.86 1021.93 1021.86 1022.01 1022.22 1022.49 1022.72 1022.92 1022.84 1022.72 1022.94 1022.79 1022.40 1022.15 1021.79 1021.30 1020.70 1019.96 1019.21 1018.17 1017.14 1016.44 1015.68 1015.08 1014.32
1014.94 1013.93 1014.15 1013.93 1014.03 1014.65 1015.23 1015.41 1015.73 1016.15 1016.66 1017.28 1017.50 1018.37 1018.80 1019.83 1020.88 1021.60 1022.28 1022.50 1022.39 1022.28 1022.34 1022.36 1022.65 1022.95 1022.93 1023.11 1023.29 1023.36 1023.24 1022.89 1022.40 1022.11 1021.61 1021.35 1020.86 1020.07 1019.28 1018.34 1016.92 1016.10 1015.16 1014.13
1013.95 1013.78 1013.88 1014.21 1014.26 1014.33 1015.54 1016.11 1016.72 1017.14 1017.80 1018.45 1018.61 1019.59 1019.48 1020.46 1021.53 1022.12 1022.39 1022.55 1022.62 1022.48 1022.49 1022.55 1022.56 1022.74 1023.13 1023.34 1023.92 1023.84 1023.73 1023.18 1022.63 1022.17 1022.01 1021.59 1021.16 1020.83 1019.66 1018.57 1017.21 1016.01 1014.87 1014.21
1013.98 1013.84 1013.99 1014.40 1014.77 1014.98 1015.78 1016.66 1017.36 1018.10 1018.89 1019.26 1018.95 1019.60 1019.94 1020.81 1021.19 1022.26 1022.71 1022.72 1022.69 1022.62 1022.57 1022.82 1023.11 1023.29 1023.80 1024.38 1024.34 1024.28 1023.97 1023.28 1022.58 1022.10 1021.94 1021.69 1021.06 1020.66 1019.75 1018.70 1017.49 1016.43 1015.24 1013.75
1014.11 1014.10 1014.24 1014.49 1015.19 1015.66 1016.25 1017.53 1018.83 1019.57 1019.98 1019.17 1018.96 1019.79 1020.37 1020.96 1021.35 1021.99 1022.64 1022.72 1022.64 1022.66 1022.87 1023.30 1023.50 1023.85 1024.28 1024.45 1024.30 1023.96 1023.47 1022.90 1022.35 1022.18 1021.94 1021.51 1020.95 1020.40 1019.83 1019.11 1018.14 1016.90 1015.57 1014.04
1014.51 1014.47 1014.27 1014.48 1014.80 1015.43 1016.54 1017.41 1019.09 1019.76 1020.38 1019.81 1019.28 1020.25 1020.60 1021.20 1021.51 1021.86 1022.29 1022.56 1022.57 1022.73 1023.11 1023.45 1023.84 1024.29 1024.61 1024.80 1024.56 1024.20 1023.86 1023.18 1022.83 1022.61 1022.37 1021.90 1021.12 1020.28 1019.67 1019.10 1018.34 1017.19 1016.06 1014.60
1013.96 1014.13 1014.00 1014.39 1014.60 1015.27 1016.60 1017.57 1018.28 1019.85 1020.87 1020.93 1020.63 1021.37 1021.40 1021.55 1021.77 1022.09 1022.60 1022.84 1022.94 1023.05 1023.15 1023.56 1024.16 1024.44 1024.62 1024.71 1024.49 1024.27 1023.88 1023.60 1023.23 1022.90 1022.46 1021.85 1021.13 1020.39 1019.56 1018.76 1017.95 1017.11 1016.17 1014.75
1013.42 1014.26 1014.36 1014.76 1014.85 1015.73 1016.29 1017.35 1018.77 1020.35 1021.43 1021.47 1020.65 1020.87 1020.57 1021.05 1021.51 1022.15 1022.72 1022.88 1022.97 1023.05 1023.32 1023.84 1024.32 1024.51 1024.62 1024.64 1024.42 1024.30 1024.06 1023.83 1023.49 1023.11 1022.77 1022.15 1021.45 1020.62 1019.73 1018.80 1017.70 1016.83 1015.86 1014.64
1013.10 1014.10 1015.27 1015.15 1015.22 1015.79 1016.93 1017.42 1018.79 1019.98 1021.05 1021.46 1021.43 1020.73 1019.55 1020.14 1021.00 1021.99 1022.40 1022.63 1022.79 1023.01 1023.42 1023.95 1024.16 1024.38 1024.51 1024.70 1024.55 1024.44 1024.34 1024.03 1023.58 1023.03 1022.58 1021.99 1021.30 1020.54 1019.70 1018.72 1017.72 1016.64 1015.56 1014.40
1012.92 1014.16 1015.04 1014.95 1014.89 1015.12 1016.12 1017.21 1018.26 1020.12 1021.07 1021.28 1021.27 1020.43 1019.96 1020.18 1021.05 1021.61 1022.10 1022.34 1022.69 1023.04 1023.42 1023.77 1024.19 1024.66 1024.70 1024.42 1024.11 1024.00 1023.81 1023.47 1023.04 1022.55 1022.14 1021.62 1021.04 1020.39 1019.52 1018.50 1017.44 1016.46 1015.35 1014.20
1012.78 1014.06 1015.21 1015.47 1015.95 1015.67 1016.23 1016.82 1017.50 1018.79 1020.11 1020.66 1021.18 1020.38 1019.87 1020.47 1021.21 1021.58 1021.96 1022.37 1022.76 1022.86 1023.17 1023.76 1024.12 1024.31 1024.34 1024.36 1024.24 1024.17 1023.81 1023.37 1022.97 1022.53 1021.99 1021.39 1020.74 1020.03 1019.30 1018.35 1017.33 1016.36 1015.35 1014.12
1012.24 1014.05 1014.46 1014.49 1015.04 1015.42 1016.04 1016.46 1016.99 1017.91 1019.58 1019.65 1019.36 1019.53 1019.87 1020.38 1021.07 1021.56 1022.15 1022.27 1022.44 1022.72 1023.19 1023.67 1023.82 1024.01 1024.27 1024.27 1024.31 1024.07 1023.70 1023.35 1023.04 1022.54 1021.94 1021.36 1020.59 1019.72 1018.88 1018.26 1017.44 1016.58 1015.47 1014.22
1013.38 1014.40 1015.01 1015.15 1015.08 1015.30 1015.51 1015.93 1016.40 1016.97 1017.44 1018.17 1018.18 1018.33 1018.50 1019.60 1020.70 1021.50 1021.75 1022.10 1022.45 1022.69 1023.10 1023.45 1023.74 1024.14 1024.33 1024.31 1024.17 1023.93 1023.63 1023.34 1022.99 1022.55 1021.95 1021.35 1020.58 1019.74 1018.90 1018.02 1017.45 1016.75 1015.75 1014.74
1014.39 1015.23 1015.50 1015.82 1015.66 1015.54 1015.46 1015.46 1015.71 1015.92 1016.39 1016.89 1017.26 1017.86 1018.09 1019.41 1020.56 1021.56 1021.87 1022.13 1022.53 1022.92 1023.32 1023.54 1023.87 1024.21 1024.22 1024.10 1023.91 1023.84 1023.64 1023.57 1023.17 1022.74 1022.12 1021.43 1020.63 1019.82 1019.01 1018.25 1017.49 1016.64 1016.04 1015.16
1015.07 1015.74 1016.64 1016.69 1016.35 1016.15 1015.49 1014.58 1014.91 1015.23 1015.51 1016.04 1016.67 1017.45 1018.57 1020.00 1020.95 1021.64 1022.17 1022.56 1022.99 1023.21 1023.49 1023.62 1023.85 1024.11 1024.12 1024.06 1024.02 1023.94 1023.93 1023.75 1023.45 1022.98 1022.29 1021.50 1020.75 1019.96 1019.24 1018.56 1017.75 1016.92 1016.15 1015.35
1015.34 1016.45 1017.29 1017.66 1017.34 1016.45 1014.71 1013.92 1014.02 1014.91 1015.70 1015.73 1016.56 1017.67 1018.80 1020.14 1021.46 1022.09 1022.59 1023.05 1023.29 1023.25 1023.38 1023.64 1024.07 1024.24 1024.18 1024.29 1024.29 1024.27 1024.30 1024.04 1023.63 1023.06 1022.39 1021.65 1020.96 1020.19 1019.45 1018.79 1018.07 1017.25 1016.50 1015.83
1015.25 1016.73 1018.09 1018.20 1017.75 1016.28 1015.17 1014.70 1014.47 1014.88 1016.86 1017.10 1017.53 1018.76 1019.87 1020.99 1021.92 1022.88 1022.87 1023.08 1023.12 1023.16 1023.63 1024.21 1024.44 1024.58 1024.65 1024.71 1024.78 1024.78 1024.64 1024.33 1023.89 1023.37 1022.67 1021.96 1021.29 1020.47 1019.74 1019.12 1018.42 1017.65 1016.99 1016.31
1016.05 1016.85 1018.21 1018.85 1018.43 1017.20 1015.69 1014.98 1014.66 1014.95 1017.40 1018.20 1018.47 1019.57 1020.46 1021.34 1022.23 1022.92 1023.09 1023.02 1023.33 1023.90 1024.44 1024.87 1025.00 1025.25 1025.28 1025.35 1025.22 1025.24 1025.00 1024.64 1024.23 1023.64 1022.99 1022.31 1021.56 1020.84 1020.14 1019.55 1018.78 1018.06 1017.28 1016.71
1017.39 1018.26 1018.82 1019.12 1018.79 1017.29 1015.89 1015.33 1015.09 1016.51 1018.54 1019.00 1019.55 1020.33 1020.96 1021.66 1022.26 1022.95 1023.27 1023.75 1024.16 1024.69 1025.05 1025.39 1025.65 1025.91 1026.06 1025.87 1025.70 1025.64 1025.45 1025.06 1024.60 1023.91 1023.22 1022.57 1021.91 1021.15 1020.44 1019.94 1019.24 1018.50 1017.76 1017.27
1017.20 1018.39 1019.03 1019.24 1018.95 1017.79 1016.02 1015.99 1016.46 1017.75 1018.65 1019.37 1020.18 1020.72 1021.23 1022.00 1022.75 1023.39 1023.99 1024.69 1025.11 1025.45 1025.72 1026.13 1026.38 1026.54 1026.53 1026.36 1026.15 1025.97 1025.78 1025.36 1024.79 1024.16 1023.49 1022.85 1022.12 1021.44 1020.75 1020.12 1019.45 1018.80 1018.12 1017.54
1016.87 1016.86 1017.76 1018.14 1017.85 1017.10 1016.48 1016.56 1017.07 1017.69 1018.76 1019.97 1020.32 1020.94 1021.64 1022.61 1023.38 1024.14 1025.06 1025.63 1025.94 1026.21 1026.65 1027.01 1027.11 1027.16 1027.05 1026.85 1026.50 1026.25 1025.94 1025.44 1024.89 1024.32 1023.75 1023.18 1022.40 1021.72 1021.12 1020.45 1019.81 1019.22 1018.63 1017.92
1016.11 1016.33 1016.95 1017.64 1017.90 1017.51 1017.24 1017.54 1017.87 1018.42 1019.35 1019.99 1020.59 1021.41 1022.26 1023.23 1024.10 1025.10 1025.75 1026.37 1026.68 1027.08 1027.41 1027.61 1027.68 1027.69 1027.54 1027.27 1026.86 1026.61 1026.14 1025.65 1025.12 1024.45 1023.92 1023.40 1022.79 1022.02 1021.48 1020.83 1020.20 1019.64 1019.05 1018.34
1015.25 1015.79 1016.58 1017.46 1017.77 1018.09 1018.35 1018.31 1018.59 1019.22 1019.82 1020.60 1021.37 1022.06 1022.91 1023.77 1024.97 1025.64 1026.50 1027.07 1027.50 1027.90 1028.10 1028.17 1028.24 1028.15 1028.01 1027.60 1027.20 1026.87 1026.49 1025.95 1025.34 1024.73 1024.11 1023.51 1022.81 1022.37 1021.82 1021.15 1020.63 1020.11 1019.51 1018.82
1014.31 1014.85 1015.65 1016.22 1016.65 1017.17 1018.28 1018.81 1018.96 1019.47 1020.26 1021.03 1021.93 1023.09 1023.96 1024.47 1025.53 1026.38 1027.14 1027.77 1028.26 1028.59 1028.77 1028.81 1028.81 1028.65 1028.36 1027.92 1027.51 1027.19 1026.73 1026.20 1025.61 1024.99 1024.37 1023.69 1023.06 1022.47 1021.87 1021.31 1020.92 1020.23 1019.67 1019.12
Thickness
5647 5630 5625 5640 5641 5645 5645 5644 5636 5642 5652 5646 5635 5637 5647 5634 5625 5615 5606 5603 5602 5602 5601 5600 5594 5592 5590 5584 5581 5579 5579 5578 5582 5583 5583 5587 5587 5592 5600 5605 5610 5614 5617 5624
5634 5621 5637 5640 5641 5644 5640 5633 5628 5636 5640 5635 5623 5618 5624 5616 5607 5602 5599 5592 5591 5589 5588 5585 5578 5574 5569 5563 5563 5561 5560 5561 5562 5562 5560 5561 5565 5572 5576 5583 5588 5595 5601 5605
5618 5637 5645 5639 5634 5631 5631 5629 5627 5625 5627 5624 5616 5602 5610 5594 5592 5588 5582 5580 5579 5577 5573 5571 5564 5558 5551 5551 5549 5543 5541 5542 5540 5541 5544 5547 5550 5554 5561 5567 5571 5575 5583 5587
5617 5636 5633 5636 5632 5628 5613 5621 5616 5612 5602 5594 5604 5577 5600 5587 5580 5573 5565 5558 5559 5560 5559 5556 5547 5542 5540 5534 5530 5525 5524 5523 5524 5521 5523 5522 5525 5531 5533 5540 5551 5556 5559 5569
5618 5627 5621 5619 5623 5627 5608 5609 5603 5600 5589 5582 5588 5571 5575 5573 5565 5560 5553 5551 5545 5544 5542 5537 5532 5529 5521 5516 5509 5506 5501 5501 5502 5501 5499 5502 5502 5502 5511 5518 5529 5537 5545 5546
5613 5622 5620 5613 5611 5608 5604 5597 5591 5580 5570 5556 5572 5565 5568 5558 5560 5548 5540 5536 5535 5533 5530 5521 5514 5509 5501 5492 5488 5484 5482 5483 5486 5486 5482 5479 5482 5483 5487 5493 5502 5512 5520 5531
5601 5601 5607 5606 5596 5598 5593 5574 5553 5553 5549 5560 5577 5559 5550 5549 5548 5540 5525 5524 5524 5520 5514 5505 5499 5490 5482 5475 5470 5470 5468 5467 5467 5465 5461 5460 5461 5462 5463 5464 5472 5482 5493 5507
5575 5576 5590 5598 5593 5584 5578 5570 5540 5549 5543 5554 5567 5535 5536 5536 5530 5526 5522 5515 5512 5506 5495 5489 5483 5472 5465 5457 5453 5450 5447 5449 5445 5440 5435 5433 5434 5436 5437 5437 5440 5450 5462 5476
5575 5577 5589 5590 5593 5586 5571 5559 5562 5544 5535 5533 5537 5520 5522 5521 5517 5513 5503 5499 5494 5492 5485 5478 5468 5459 5451 5444 5439 5434 5430 5427 5422 5416 5410 5407 5404 5403 5405 5408 5409 5415 5426 5442
5582 5566 5578 5577 5581 5573 5566 5561 5536 5514 5522 5519 5524 5511 5508 5516 5515 5508 5492 5485 5484 5478 5472 5465 5453 5444 5437 5430 5426 5420 5413 5406 5399 5393 5386 5384 5383 5383 5386 5388 5392 5396 5400 5409
5576 5561 5556 5563 5560 5555 5545 5542 5539 5526 5502 5509 5510 5506 5523 5518 5510 5492 5483 5477 5470 5465 5459 5448 5441 5435 5426 5418 5411 5403 5395 5389 5384 5381 5376 5375 5374 5372 5374 5376 5379 5385 5390 5397
5570 5553 5541 5552 5558 5555 5545 5534 5522 5475 5500 5472 5465 5497 5508 5499 5488 5480 5476 5470 5461 5454 5443 5436 5428 5417 5411 5407 5403 5397 5392 5385 5379 5376 5372 5369 5366 5364 5365 5366 5369 5373 5379 5387
5561 5539 5522 5534 5533 5540 5533 5535 5529 5500 5484 5494 5462 5486 5497 5486 5475 5471 5462 5456 5450 5444 5435 5425 5417 5407 5400 5395 5390 5384 5379 5374 5368 5366 5366 5365 5362 5359 5358 5359 5360 5363 5368 5376
5556 5537 5539 5538 5533 5524 5522 5526 5520 5509 5470 5488 5482 5487 5479 5474 5466 5461 5450 5445 5440 5434 5427 5419 5411 5403 5393 5387 5377 5373 5369 5363 5360 5359 5360 5358 5357 5355 5354 5353 5353 5356 5363 5370
5537 5527 5528 5526 5527 5527 5527 5522 5516 5508 5503 5482 5495 5496 5487 5473 5461 5450 5446 5439 5432 5426 5418 5411 5402 5393 5387 5381 5373 5367 5363 5358 5355 5355 5354 5353 5352 5351 5350 5350 5348 5349 5355 5362
5515 5485 5515 5510 5514 5515 5512 5512 5511 5512 5504 5497 5493 5485 5478 5463 5449 5437 5433 5428 5421 5413 5407 5401 5392 5386 5381 5375 5370 5362 5356 5351 5349 5348 5347 5346 5347 5347 5346 5345 5347 5348 5350 5356
5501 5492 5486 5492 5504 5501 5494 5507 5509 5506 5502 5490 5470 5473 5460 5449 5441 5427 5419 5413 5406 5401 5397 5392 5386 5379 5374 5368 5362 5355 5349 5344 5342 5341 5341 5342 5342 5342 5341 5341 5341 5345 5348 5353
5484 5481 5469 5470 5482 5470 5506 5510 5510 5495 5489 5489 5473 5465 5455 5439 5421 5412 5406 5400 5396 5393 5390 5385 5376 5371 5367 5360 5353 5348 5341 5338 5337 5335 5337 5337 5338 5338 5338 5338 5338 5340 5343 5346
5487 5468 5457 5450 5458 5479 5491 5496 5492 5489 5463 5461 5459 5447 5434 5423 5410 5399 5401 5396 5393 5391 5381 5370 5365 5361 5355 5349 5344 5339 5334 5332 5330 5329 5330 5331 5332 5333 5334 5333 5334 5336 5338 5339
5475 5466 5450 5440 5441 5433 5466 5478 5483 5481 5428 5443 5445 5430 5424 5415 5401 5386 5394 5390 5383 5374 5364 5356 5353 5349 5344 5338 5335 5331 5327 5325 5323 5323 5324 5325 5326 5327 5328 5328 5330 5332 5335 5335
5443 5431 5426 5428 5397 5438 5465 5473 5477 5455 5434 5426 5422 5412 5407 5392 5387 5388 5382 5374 5368 5359 5353 5346 5341 5336 5331 5328 5326 5322 5319 5318 5317 5317 5318 5319 5320 5321 5323 5322 5324 5326 5330 5331
5430 5418 5409 5410 5391 5419 5464 5464 5453 5429 5423 5416 5407 5403 5398 5392 5384 5377 5369 5358 5351 5344 5340 5333 5327 5323 5320 5318 5316 5313 5310 5310 5311 5311 5312 5312 5314 5316 5317 5318 5319 5321 5324 5326
5428 5425 5418 5421 5419 5435 5441 5443 5432 5427 5414 5404 5402 5399 5391 5380 5371 5362 5348 5340 5336 5332 5325 5318 5314 5310 5308 5307 5306 5303 5303 5303 5304 5304 5304 5304 5306 5309 5310 5312 5313 5314 5316 5319
5439 5434 5415 5422 5424 5426 5425 5424 5421 5415 5405 5402 5396 5387 5378 5366 5356 5341 5333 5327 5323 5317 5311 5306 5302 5299 5296 5296 5295 5294 5294 5294 5294 5296 5295 5297 5298 5300 5301 5303 5305 5307 5308 5311
5429 5431 5420 5410 5420 5418 5414 5411 5407 5401 5397 5390 5383 5374 5363 5352 5338 5329 5320 5314 5310 5305 5300 5296 5292 5290 5287 5287 5286 5284 5283 5283 5285 5286 5286 5288 5291 5289 5291 5294 5294 5297 5298 5302
5434 5427 5413 5407 5418 5412 5406 5397 5398 5394 5388 5382 5367 5354 5344 5336 5323 5315 5307 5303 5297 5293 5289 5286 5282 5280 5279 5278 5277 5274 5274 5274 5275 5276 5276 5278 5281 5281 5283 5283 5284 5289 5291 5294